Location: Peterborough
(44.3091°N, 78.3197°W)
Time: 07:01:23
(UTC-04:00)

Vanguard 2 - Pass Details

Date: 29 March 2023
Orbit: 552 x 2926 km, 32.9° (Epoch: 04 June)

Event Time Altitude Azimuth Distance (km) Brightness Sun altitude
Rises 05:31:44 0° 230° (SW) 6,534 - -16.2°
Reaches altitude 10° 05:36:12 10° 225° (SW) 5,658 - -15.5°
Exits shadow 05:36:52 12° 224° (SW) 5,531 11.3 -15.4°
Maximum altitude 05:52:20 45° 161° (SSE) 3,535 10.9 -12.7°
Drops below altitude 10° 06:06:13 10° 96° (E) 4,930 12.9 -10.3°
Sets 06:09:47 0° 90° (E) 5,663 13.8 -9.7°
